This is the latest recevied weather packets stored in our database for station/object S56WDN-10. If no packets are shown the sender has not sent any weather packets the latest 10 day(s).
| Time | Temp. | Humidity | Pressure | Rain* | Wind** | Luminosity | Snow |
|---|---|---|---|---|---|---|---|
| 1778169711 | 20.56° C | 56% | 1011.4 hPa | 0 mm | - | - | - |
| 1778169411 | 20.56° C | 55% | 1011.5 hPa | 0 mm | - | - | - |
| 1778169111 | 20.56° C | 55% | 1011.4 hPa | 0 mm | - | - | - |
| 1778168811 | 20.56° C | 55% | 1011.4 hPa | 0 mm | - | - | - |
| 1778168511 | 21.67° C | 54% | 1011.4 hPa | 0 mm | - | - | - |
| 1778168211 | 21.67° C | 52% | 1011.3 hPa | 0 mm | - | - | - |
| 1778167911 | 21.67° C | 52% | 1011.3 hPa | 0 mm | - | - | - |
| 1778167611 | 21.67° C | 52% | 1011.2 hPa | 0 mm | - | - | - |
| 1778167311 | 22.78° C | 51% | 1011.1 hPa | 0 mm | - | - | - |
| 1778167011 | 22.22° C | 52% | 1011.1 hPa | 0 mm | - | - | - |
| 1778166711 | 22.22° C | 51% | 1011.2 hPa | 0 mm | - | - | - |
| 1778166411 | 22.78° C | 50% | 1011.1 hPa | 0 mm | - | - | - |
| 1778166111 | 22.78° C | 50% | 1011.2 hPa | 0 mm | - | - | - |
| 1778165811 | 23.89° C | 49% | 1011.1 hPa | 0 mm | - | - | - |
| 1778165511 | 23.89° C | 51% | 1011.2 hPa | 0 mm | - | - | - |
| 1778165211 | 23.33° C | 52% | 1011.2 hPa | 0 mm | - | - | - |
| 1778164911 | 23.33° C | 51% | 1011.2 hPa | 0 mm | - | - | - |
| 1778164611 | 23.33° C | 51% | 1011.3 hPa | 0 mm | - | - | - |
| 1778164311 | 22.78° C | 52% | 1011.1 hPa | 0 mm | - | - | - |
| 1778164011 | 22.78° C | 51% | 1011.2 hPa | 0 mm | - | - | - |
| 1778163711 | 23.33° C | 50% | 1011.2 hPa | 0 mm | - | - | - |
| 1778163411 | 23.33° C | 50% | 1011.2 hPa | 0 mm | - | - | - |
| 1778163111 | 23.33° C | 50% | 1011.4 hPa | 0 mm | - | - | - |
| 1778162811 | 23.33° C | 51% | 1011.2 hPa | 0 mm | - | - | - |
| 1778162511 | 23.33° C | 50% | 1011.4 hPa | 0 mm | - | - | - |
* Rain latest hour (hover to see other rain measurements)
** Current wind speed in m/s (hover to see current wind gust speed)